Regional Weather Roundup
Issued by NWS Midland/Odessa, TX

Skip options and go directly to product.
Home | Oldest Version | Next Version | Current Version | All | Text Only | Save Text | Print | Product List | Glossary On

Skip product version selection by date and time.   
582
ASUS44 KMAF 250502
RWRMAF
MIDLAND AREA WEATHER ROUNDUP
NATIONAL WEATHER SERVICE MIDLAND TX
1200 AM CDT FRI JUL 25 2014

...IN SOUTHWEST TEXAS AND SOUTHEAST NEW MEXICO...

CITY           SKY/WX    TMP DP  RH WIND       PRES   REMARKS
ALPINE         CLEAR     77  52  41 S9        30.24S
ANDREWS        FAIR      84  59  42 SE14      30.11R
ARTESIA        CLEAR     81  48  32 SE7       30.10R
BIG SPRING     CLEAR     84  60  43 SE10      30.10S
CARLSBAD       CLEAR     84  45  25 S7        30.07R
DRYDEN           N/A     86  63  45 E9        30.04R
FORT STOCKTON  CLEAR     82  59  45 S9        30.08R
GUAD PASS      CLEAR     78  47  33 SE15        N/A
HOBBS          CLEAR     82  54  36 SE13      30.13S
MARFA          CLEAR     70  54  56 E3        30.24R
MIDLAND AIRPK  CLEAR     86  59  39 SE9       30.10R
MIDLAND INTL   CLEAR     85  61  44 SE15      30.09R
ODESSA         CLEAR     83  61  47 SE13      30.10R
PECOS          CLEAR     82  53  36 SE7       30.04R
PRESIDIO       FAIR      85  53  32 E5        30.07R
SEMINOLE       CLEAR     84  57  40 SE10G18   30.12R
SNYDER         CLEAR     84  64  50 SE10      30.09R
WINK           CLEAR     89  56  32 SE14      30.05R
$$
...OTHER STATIONS IN TEXAS...

CITY           SKY/WX    TMP DP  RH WIND       PRES   REMARKS
ABILENE        CLEAR     81  66  60 SE8       30.06R
AMARILLO       CLEAR     78  60  53 SE13      30.11R
AUSTIN         CLEAR     76  72  87 CALM      30.00R
BROWNSVILLE    CLEAR     80  76  87 SE5       30.00R
CORPUS CHRISTI PTCLDY    80  73  79 SE7       30.00R
DALLAS FTW     CLEAR     82  69  64 SE8       30.00R
DEL RIO        PTCLDY    85  66  53 E5        29.99R
EL PASO        PTCLDY    87  48  25 SE13      30.10R
HOUSTON INT    MOCLDY    82  71  69 S5        30.00R
LUBBOCK        CLEAR     82  58  43 SE13      30.11R
SAN ANGELO     CLEAR     82  63  52 S6        30.06R
SAN ANTONIO    PTCLDY    83  70  64 S7        30.02R
WACO           CLEAR     78  69  73 SE7       30.01R
WICHITA FALLS  NOT AVBL
$$
...OTHER LOCATIONS IN NEW MEXICO...

CITY           SKY/WX    TMP DP  RH WIND       PRES   REMARKS
ALAMAGORDO     MOCLDY    82  43  24 SE6       30.14R
ALBUQUERQUE    PTCLDY    79  43  27 SE7       30.19R
CANNON AFB     CLEAR     73  56  54 S7        30.16R
CLOVIS         NOT AVBL
HOLLOMAN AFB   PTCLDY    83  43  24 SE6       30.12R
ROSWELL        CLEAR     83  46  27 S6        30.10R
RUIDOSO        MOCLDY    70  41  35 S7        30.39R
SANTA FE       CLEAR     72  44  36 NE6       30.26S
TRUTH OR CONSE CLEAR     80  39  23 W5        30.17R
TUCUMCARI      CLEAR     84  49  29 S18       30.09R
$$

USA.gov is the U.S. government's official web portal to all federal, state and local government web resources and services.